STARLINK-4655, 53613

Orbit data source: Space-Track

STARLINK-4655, 53613 is a payload satellite owned by SpaceX/Seattle (US) in LEO that was launched on Sun, 28 Aug 2022 UTC via an FALCON 9 launch vehicle from the Air Force Eastern Test Range (AFETR). Payloads include a variety of satellites, spacecraft, and rockets equipped with specific instruments for various scientific and technological missions. These include communications satellites like Starlink; space stations such as the ISS; scientific satellites like the Hubble; Earth observation satellites from companies like Planet Labs, Umbra, and HawkEye 360; GPS; miniature CubeSats for education and research; and military/defense satellites.

Loading next visibility...
STARLINK-4655 details
Identifier
53613, 2022-104AB
Orbit
LEO
Last TLE update15 hours ago
Origin
Flag of USSpaceX/Seattle (US)
ManufacturerSpaceX/Seattle
MissionOperational Commercial Communications
Bus & MotorSTARLINK, Unknown motor
Mass300 kg wet, ~290 kg dry
Launch date (UTC)
2022-08-28 (2 years ago)
Launch vehicle
FALCON 9
Launch site
Air Force Eastern Test Range (AFETR)
Object type
Payload
Rocket body
Debris
Shape & HBRBox + 1 Pan, 8.86 m
Radar Cross Section13.562 m², Large (>1 m²)

Expand to show TLE details & history

TLE from 15 hours ago
0 STARLINK-4655
1 53613U 22104AB  24361.11941629  .00000709  00000-0  62621-4 0  9993
2 53613  53.2199  43.0916 0001453  85.3937 274.7221 15.08836473129428
Epoch: 2024-12-26T02:51Z
Definitive object data (Epoch: 2024-12-26T02:51:57.567Z)
Latitude-0.00003°
Longitude-95.00167°
Altitude540.569 km
Speed7.593 km/s
True Right ascension02h 52m 21s
True Declination0° 00' 00"
Sunlit
Object was in full shadow at TLE epoch
Visualization TLE readout
Latitude-22.33635°
Longitude99.93594°
Altitude546.604 km
Speed7.589 km/s
Apparent Right ascension12h 48m 43s
Apparent Declination-67° 28' 42"
Sunlit
Object is in daylight
Visualization observer readout
Local Sidereal Time17:27:58
Azimuth204.379° SW
Elevation-29.429°
Doppler factor1
Orbital elements
Apogee altitude541.004 km
Perigee altitude538.994 km
Semi-major axis6,918.136 km
Eccentricity0.0001453
Inclination53.2199°
RAAN43.0916°
Arg. of periapsis85.3937°
True anomaly274.70551°
Mean anomaly274.7221°
Eccentric anomaly274.7138°
Mean motion3.77189 °/min
BSTAR0.000062621
Orbital period95.44 mins
Loading maneuver chart data...
Loading historical data...
Loading historical data...
Loading historical data...
Loading historical data...
Loading historical data...
Loading historical data...
Loading historical data...

STARLINK-4655 Visibility forecast

Observer location: undefined°, undefined

Span
Click to sort rows by Start time (UTC) header in descending order
Start Az.
Max El. time (UTC)
Max El. Az.
Max El.
End time (UTC)
End Az.
5 mins2024-12-27 04:27:31.750Z165.411° S2024-12-27 04:29:31.750Z129.589° SE18.951°2024-12-27 04:32:31.750Z80.716° E
6 mins2024-12-27 06:06:31.750Z255.197° W2024-12-27 06:08:31.750Z316.301° NNW39.279°2024-12-27 06:12:31.750Z42.614° NE
5 mins2024-12-27 11:07:31.750Z338.843° N2024-12-27 11:09:31.750Z16.807° NNE23.407°2024-12-27 11:12:31.750Z77.072° E
6 mins2024-12-27 12:46:31.750Z299.333° NW2024-12-27 12:49:31.750Z219.825° SW40.115°2024-12-27 12:52:31.750Z148.716° SSE
|